QPF
0.00 0.00 0.00 0.00 0.00 0.00 0.00 0.00 0.00 0.00 0.00 0.00 0.00 0.00 0.00 0.00 0.00 0.00 0.00 0.00 0.00 0.00 0.00 0.01 0.01 0.03 0.02 0.01 0.01 0.01 0.01 0.02 0.02 0.02 0.02 0.02 0.02 0.03 0.05 0.05 0.05 0.05 0.04 0.05
0.00 0.00 0.00 0.00 0.00 0.00 0.00 0.00 0.00 0.00 0.00 0.00 0.00 0.00 0.00 0.00 0.00 0.00 0.00 0.00 0.00 0.00 0.01 0.01 0.01 0.02 0.02 0.01 0.01 0.01 0.01 0.02 0.02 0.01 0.01 0.02 0.02 0.03 0.03 0.06 0.06 0.06 0.06 0.06
0.00 0.00 0.00 0.00 0.00 0.00 0.00 0.00 0.00 0.00 0.00 0.00 0.00 0.00 0.00 0.00 0.00 0.00 0.00 0.00 0.00 0.00 0.01 0.01 0.01 0.01 0.01 0.01 0.01 0.01 0.02 0.02 0.02 0.02 0.01 0.02 0.02 0.02 0.03 0.04 0.05 0.05 0.04 0.04
0.00 0.00 0.00 0.00 0.00 0.00 0.00 0.00 0.00 0.00 0.00 0.00 0.00 0.00 0.00 0.00 0.00 0.00 0.00 0.00 0.01 0.01 0.01 0.01 0.02 0.01 0.01 0.01 0.01 0.01 0.01 0.01 0.01 0.01 0.01 0.01 0.01 0.02 0.02 0.02 0.03 0.03 0.03 0.03
0.00 0.00 0.00 0.00 0.00 0.00 0.00 0.00 0.00 0.00 0.00 0.00 0.00 0.00 0.00 0.00 0.00 0.00 0.00 0.01 0.01 0.02 0.02 0.02 0.02 0.02 0.02 0.01 0.01 0.02 0.01 0.01 0.01 0.01 0.01 0.01 0.01 0.01 0.01 0.02 0.03 0.03 0.04 0.04
0.00 0.00 0.00 0.00 0.00 0.00 0.00 0.00 0.00 0.00 0.00 0.00 0.00 0.00 0.00 0.00 0.00 0.00 0.00 0.01 0.01 0.01 0.01 0.02 0.02 0.02 0.02 0.02 0.01 0.01 0.01 0.01 0.01 0.01 0.01 0.00 0.01 0.01 0.02 0.03 0.04 0.05 0.04 0.04
0.00 0.00 0.00 0.00 0.00 0.00 0.00 0.00 0.00 0.00 0.00 0.00 0.00 0.00 0.00 0.00 0.00 0.00 0.00 0.01 0.01 0.01 0.01 0.01 0.02 0.02 0.01 0.01 0.01 0.01 0.00 0.00 0.00 0.01 0.00 0.00 0.00 0.00 0.01 0.01 0.02 0.04 0.05 0.06
0.00 0.00 0.00 0.00 0.00 0.00 0.00 0.00 0.00 0.00 0.00 0.00 0.00 0.00 0.00 0.00 0.01 0.01 0.01 0.01 0.01 0.02 0.02 0.02 0.02 0.02 0.01 0.01 0.01 0.00 0.00 0.00 0.01 0.01 0.00 0.01 0.01 0.01 0.00 0.00 0.01 0.03 0.05 0.06
0.00 0.00 0.00 0.00 0.00 0.00 0.00 0.00 0.00 0.00 0.00 0.00 0.00 0.00 0.00 0.00 0.01 0.01 0.02 0.01 0.02 0.02 0.02 0.02 0.02 0.01 0.01 0.01 0.01 0.01 0.01 0.01 0.01 0.01 0.01 0.01 0.01 0.00 0.00 0.00 0.01 0.01 0.03 0.05
0.00 0.00 0.00 0.00 0.00 0.00 0.00 0.00 0.00 0.00 0.00 0.01 0.01 0.01 0.00 0.01 0.01 0.01 0.01 0.02 0.02 0.02 0.02 0.02 0.01 0.01 0.01 0.01 0.01 0.01 0.02 0.01 0.01 0.01 0.01 0.01 0.01 0.01 0.01 0.01 0.01 0.02 0.02 0.03
0.00 0.00 0.00 0.00 0.00 0.00 0.00 0.00 0.00 0.01 0.02 0.02 0.01 0.01 0.01 0.01 0.01 0.01 0.02 0.03 0.03 0.02 0.02 0.01 0.01 0.01 0.01 0.01 0.00 0.01 0.01 0.01 0.00 0.00 0.01 0.01 0.02 0.02 0.03 0.03 0.02 0.02 0.02 0.02
0.01 0.00 0.00 0.00 0.00 0.00 0.00 0.00 0.01 0.02 0.02 0.02 0.01 0.01 0.01 0.02 0.03 0.03 0.03 0.03 0.03 0.03 0.02 0.01 0.01 0.01 0.00 0.00 0.00 0.00 0.00 0.01 0.01 0.01 0.02 0.02 0.03 0.03 0.02 0.02 0.02 0.03 0.03 0.02
0.01 0.00 0.01 0.00 0.00 0.00 0.00 0.01 0.01 0.01 0.01 0.02 0.02 0.02 0.02 0.02 0.03 0.03 0.04 0.04 0.04 0.03 0.02 0.01 0.01 0.01 0.00 0.00 0.00 0.01 0.01 0.01 0.01 0.02 0.02 0.02 0.02 0.02 0.02 0.02 0.01 0.01 0.01 0.01
0.01 0.01 0.00 0.00 0.00 0.00 0.01 0.01 0.01 0.01 0.01 0.01 0.02 0.02 0.03 0.03 0.02 0.03 0.03 0.03 0.03 0.03 0.02 0.01 0.01 0.01 0.00 0.00 0.00 0.01 0.00 0.00 0.01 0.01 0.01 0.01 0.01 0.01 0.01 0.01 0.01 0.00 0.00 0.00
0.01 0.01 0.02 0.01 0.01 0.01 0.01 0.02 0.01 0.01 0.02 0.03 0.03 0.03 0.04 0.04 0.03 0.03 0.03 0.03 0.03 0.02 0.02 0.01 0.01 0.00 0.00 0.00 0.00 0.01 0.00 0.00 0.00 0.01 0.01 0.01 0.01 0.01 0.01 0.01 0.00 0.00 0.00 0.00
0.02 0.02 0.03 0.02 0.02 0.02 0.02 0.02 0.02 0.02 0.02 0.03 0.03 0.03 0.04 0.04 0.03 0.03 0.03 0.03 0.04 0.05 0.04 0.03 0.02 0.01 0.00 0.00 0.01 0.01 0.01 0.01 0.00 0.00 0.00 0.00 0.00 0.00 0.00 0.00 0.00 0.00 0.01 0.01
0.03 0.03 0.03 0.03 0.03 0.04 0.04 0.03 0.03 0.03 0.03 0.03 0.02 0.02 0.03 0.02 0.02 0.02 0.02 0.02 0.02 0.04 0.05 0.04 0.02 0.01 0.01 0.02 0.02 0.03 0.03 0.02 0.01 0.00 0.00 0.00 0.00 0.00 0.00 0.00 0.01 0.01 0.02 0.02
0.04 0.03 0.04 0.04 0.04 0.04 0.04 0.05 0.04 0.04 0.04 0.03 0.02 0.02 0.02 0.03 0.03 0.02 0.01 0.01 0.01 0.02 0.03 0.03 0.01 0.02 0.03 0.05 0.06 0.06 0.05 0.03 0.01 0.00 0.00 0.00 0.00 0.00 0.00 0.00 0.01 0.01 0.01 0.01
0.05 0.04 0.03 0.04 0.04 0.04 0.04 0.04 0.04 0.04 0.04 0.03 0.03 0.02 0.02 0.02 0.03 0.03 0.02 0.02 0.02 0.01 0.01 0.01 0.01 0.02 0.03 0.05 0.07 0.06 0.05 0.03 0.02 0.01 0.01 0.01 0.01 0.00 0.00 0.00 0.00 0.00 0.00 0.00
0.05 0.03 0.03 0.03 0.03 0.04 0.04 0.03 0.03 0.03 0.03 0.02 0.02 0.02 0.02 0.02 0.02 0.02 0.02 0.02 0.02 0.02 0.02 0.01 0.01 0.01 0.02 0.03 0.03 0.03 0.03 0.03 0.03 0.02 0.02 0.01 0.00 0.00 0.00 0.00 0.00 0.00 0.00 0.00
0.04 0.03 0.03 0.03 0.03 0.04 0.04 0.05 0.04 0.03 0.02 0.02 0.03 0.03 0.03 0.02 0.02 0.02 0.02 0.02 0.02 0.02 0.02 0.02 0.02 0.02 0.01 0.01 0.01 0.01 0.01 0.01 0.01 0.00 0.00 0.00 0.00 0.00 0.00 0.00 0.00 0.00 0.00 0.00
0.04 0.04 0.04 0.04 0.03 0.05 0.06 0.05 0.04 0.03 0.02 0.02 0.02 0.03 0.03 0.04 0.03 0.02 0.01 0.02 0.02 0.02 0.01 0.01 0.01 0.01 0.01 0.01 0.00 0.00 0.00 0.00 0.00 0.00 0.00 0.00 0.00 0.00 0.00 0.00 0.00 0.00 0.00 0.00
0.05 0.05 0.06 0.05 0.05 0.05 0.06 0.06 0.04 0.03 0.02 0.02 0.01 0.01 0.02 0.02 0.02 0.02 0.01 0.01 0.01 0.01 0.01 0.01 0.01 0.01 0.01 0.01 0.00 0.00 0.00 0.00 0.00 0.00 0.00 0.00 0.00 0.00 0.00 0.00 0.00 0.00 0.00 0.00
0.06 0.06 0.07 0.06 0.05 0.05 0.06 0.07 0.05 0.04 0.02 0.01 0.01 0.01 0.01 0.01 0.01 0.01 0.01 0.01 0.00 0.00 0.00 0.01 0.01 0.01 0.01 0.00 0.00 0.00 0.00 0.00 0.00 0.00 0.00 0.00 0.00 0.00 0.00 0.00 0.00 0.00 0.00 0.00
0.06 0.08 0.07 0.06 0.05 0.05 0.05 0.05 0.05 0.04 0.02 0.02 0.02 0.02 0.01 0.01 0.01 0.01 0.01 0.00 0.00 0.00 0.00 0.00 0.00 0.00 0.00 0.00 0.00 0.00 0.00 0.00 0.00 0.00 0.00 0.00 0.00 0.00 0.00 0.00 0.00 0.00 0.00 0.00
0.07 0.07 0.07 0.06 0.05 0.05 0.04 0.05 0.05 0.03 0.02 0.02 0.02 0.03 0.02 0.01 0.01 0.01 0.00 0.00 0.00 0.00 0.00 0.00 0.00 0.00 0.00 0.00 0.00 0.00 0.00 0.00 0.00 0.00 0.00 0.00 0.00 0.00 0.00 0.00 0.00 0.00 0.00 0.00
0.05 0.05 0.05 0.05 0.04 0.04 0.04 0.04 0.04 0.03 0.01 0.01 0.02 0.03 0.02 0.01 0.00 0.00 0.00 0.00 0.00 0.00 0.00 0.00 0.00 0.00 0.00 0.00 0.00 0.00 0.00 0.00 0.00 0.00 0.00 0.00 0.00 0.00 0.00 0.00 0.00 0.00 0.00 0.00
MSLP
1011.81 1011.81 1011.83 1011.89 1011.98 1012.07 1012.12 1012.09 1011.95 1011.69 1011.30 1010.83 1010.32 1009.84 1009.47 1009.25 1009.21 1009.38 1009.72 1010.20 1010.75 1011.33 1011.87 1012.35 1012.74 1013.05 1013.29 1013.50 1013.68 1013.87 1014.06 1014.24 1014.39 1014.50 1014.55 1014.51 1014.41 1014.25 1014.05 1013.87 1013.71 1013.63 1013.62 1013.71
1011.96 1011.90 1011.84 1011.79 1011.75 1011.72 1011.66 1011.55 1011.37 1011.10 1010.75 1010.35 1009.92 1009.53 1009.23 1009.05 1009.03 1009.17 1009.47 1009.90 1010.41 1010.96 1011.51 1012.02 1012.48 1012.88 1013.24 1013.55 1013.83 1014.10 1014.34 1014.56 1014.73 1014.85 1014.90 1014.87 1014.79 1014.65 1014.50 1014.35 1014.23 1014.17 1014.18 1014.27
1012.09 1012.01 1011.91 1011.80 1011.69 1011.57 1011.43 1011.26 1011.04 1010.77 1010.43 1010.06 1009.68 1009.33 1009.04 1008.86 1008.82 1008.92 1009.16 1009.53 1009.99 1010.52 1011.08 1011.64 1012.18 1012.69 1013.16 1013.59 1013.98 1014.32 1014.62 1014.87 1015.06 1015.18 1015.22 1015.21 1015.14 1015.04 1014.93 1014.83 1014.77 1014.76 1014.80 1014.91
1012.18 1012.12 1012.02 1011.90 1011.76 1011.61 1011.44 1011.23 1010.99 1010.70 1010.37 1010.00 1009.63 1009.27 1008.98 1008.77 1008.67 1008.71 1008.88 1009.19 1009.61 1010.13 1010.70 1011.31 1011.93 1012.54 1013.12 1013.65 1014.13 1014.55 1014.89 1015.16 1015.34 1015.46 1015.50 1015.49 1015.44 1015.37 1015.31 1015.28 1015.29 1015.34 1015.44 1015.59
1012.21 1012.18 1012.12 1012.04 1011.92 1011.78 1011.61 1011.40 1011.15 1010.86 1010.52 1010.15 1009.76 1009.39 1009.07 1008.81 1008.66 1008.63 1008.75 1009.00 1009.38 1009.88 1010.48 1011.13 1011.82 1012.51 1013.17 1013.78 1014.32 1014.78 1015.15 1015.42 1015.60 1015.69 1015.73 1015.72 1015.69 1015.66 1015.66 1015.70 1015.78 1015.91 1016.08 1016.29
1012.16 1012.19 1012.19 1012.16 1012.10 1012.00 1011.86 1011.68 1011.44 1011.16 1010.82 1010.45 1010.06 1009.68 1009.33 1009.04 1008.85 1008.77 1008.84 1009.05 1009.40 1009.89 1010.49 1011.17 1011.89 1012.63 1013.35 1014.00 1014.58 1015.05 1015.41 1015.67 1015.83 1015.91 1015.93 1015.92 1015.92 1015.94 1016.00 1016.11 1016.27 1016.49 1016.74 1017.01
1012.05 1012.13 1012.19 1012.22 1012.23 1012.19 1012.10 1011.96 1011.76 1011.51 1011.20 1010.85 1010.48 1010.10 1009.75 1009.46 1009.25 1009.15 1009.19 1009.37 1009.71 1010.18 1010.77 1011.45 1012.19 1012.94 1013.66 1014.32 1014.89 1015.36 1015.70 1015.94 1016.07 1016.14 1016.15 1016.16 1016.18 1016.25 1016.37 1016.55 1016.80 1017.09 1017.42 1017.75
1011.92 1012.01 1012.12 1012.21 1012.27 1012.30 1012.27 1012.18 1012.04 1011.83 1011.57 1011.26 1010.93 1010.60 1010.28 1010.02 1009.83 1009.75 1009.79 1009.96 1010.28 1010.74 1011.31 1011.96 1012.67 1013.40 1014.09 1014.73 1015.27 1015.70 1016.02 1016.23 1016.35 1016.40 1016.43 1016.46 1016.52 1016.64 1016.83 1017.08 1017.39 1017.75 1018.14 1018.52
1011.79 1011.88 1012.00 1012.13 1012.23 1012.30 1012.33 1012.29 1012.20 1012.06 1011.86 1011.63 1011.37 1011.10 1010.86 1010.66 1010.53 1010.49 1010.55 1010.74 1011.06 1011.49 1012.02 1012.63 1013.28 1013.95 1014.59 1015.17 1015.66 1016.05 1016.34 1016.54 1016.66 1016.73 1016.78 1016.85 1016.96 1017.14 1017.38 1017.70 1018.07 1018.48 1018.90 1019.31
1011.70 1011.76 1011.87 1012.00 1012.12 1012.22 1012.27 1012.28 1012.25 1012.16 1012.03 1011.88 1011.71 1011.55 1011.40 1011.30 1011.25 1011.28 1011.39 1011.60 1011.91 1012.32 1012.80 1013.35 1013.93 1014.52 1015.09 1015.60 1016.04 1016.40 1016.67 1016.86 1017.00 1017.10 1017.20 1017.33 1017.50 1017.73 1018.04 1018.40 1018.81 1019.25 1019.68 1020.10
1011.66 1011.68 1011.75 1011.86 1011.97 1012.07 1012.13 1012.17 1012.16 1012.12 1012.07 1011.99 1011.92 1011.87 1011.84 1011.84 1011.90 1012.01 1012.18 1012.43 1012.74 1013.12 1013.56 1014.04 1014.54 1015.04 1015.53 1015.98 1016.37 1016.69 1016.96 1017.17 1017.35 1017.50 1017.67 1017.86 1018.09 1018.39 1018.74 1019.14 1019.57 1020.01 1020.44 1020.84
1011.63 1011.60 1011.64 1011.72 1011.80 1011.88 1011.94 1011.97 1011.98 1011.97 1011.96 1011.96 1011.98 1012.03 1012.11 1012.23 1012.39 1012.59 1012.83 1013.12 1013.44 1013.81 1014.20 1014.61 1015.04 1015.47 1015.88 1016.27 1016.62 1016.93 1017.21 1017.45 1017.68 1017.90 1018.13 1018.40 1018.70 1019.04 1019.43 1019.85 1020.29 1020.72 1021.13 1021.49
1011.55 1011.50 1011.51 1011.56 1011.62 1011.67 1011.70 1011.71 1011.71 1011.72 1011.74 1011.79 1011.88 1012.02 1012.20 1012.43 1012.69 1012.98 1013.30 1013.63 1013.98 1014.33 1014.69 1015.06 1015.42 1015.78 1016.13 1016.48 1016.80 1017.11 1017.41 1017.70 1017.98 1018.26 1018.57 1018.89 1019.25 1019.64 1020.05 1020.48 1020.91 1021.32 1021.70 1022.01
1011.34 1011.30 1011.32 1011.36 1011.40 1011.42 1011.43 1011.41 1011.40 1011.40 1011.43 1011.52 1011.66 1011.87 1012.14 1012.46 1012.82 1013.21 1013.60 1013.99 1014.36 1014.72 1015.06 1015.39 1015.71 1016.02 1016.33 1016.64 1016.95 1017.27 1017.58 1017.91 1018.24 1018.58 1018.94 1019.32 1019.72 1020.13 1020.56 1020.98 1021.40 1021.78 1022.12 1022.40
1010.93 1010.95 1011.00 1011.07 1011.11 1011.13 1011.12 1011.08 1011.05 1011.04 1011.08 1011.18 1011.37 1011.64 1011.98 1012.39 1012.84 1013.31 1013.78 1014.22 1014.64 1015.02 1015.36 1015.67 1015.96 1016.24 1016.52 1016.80 1017.10 1017.42 1017.75 1018.10 1018.47 1018.85 1019.25 1019.66 1020.08 1020.51 1020.93 1021.34 1021.73 1022.09 1022.40 1022.65
1010.30 1010.41 1010.54 1010.66 1010.74 1010.77 1010.76 1010.72 1010.68 1010.67 1010.71 1010.84 1011.06 1011.39 1011.81 1012.29 1012.83 1013.38 1013.92 1014.43 1014.90 1015.30 1015.66 1015.97 1016.24 1016.50 1016.75 1017.02 1017.30 1017.61 1017.95 1018.31 1018.69 1019.09 1019.50 1019.92 1020.34 1020.76 1021.17 1021.56 1021.92 1022.26 1022.55 1022.79
1009.48 1009.70 1009.94 1010.14 1010.28 1010.35 1010.37 1010.34 1010.32 1010.32 1010.39 1010.54 1010.81 1011.20 1011.68 1012.24 1012.86 1013.49 1014.11 1014.69 1015.20 1015.64 1016.02 1016.33 1016.60 1016.84 1017.07 1017.31 1017.57 1017.86 1018.18 1018.53 1018.90 1019.30 1019.70 1020.11 1020.52 1020.92 1021.30 1021.67 1022.02 1022.33 1022.61 1022.86
1008.56 1008.91 1009.26 1009.55 1009.77 1009.91 1009.97 1009.99 1010.00 1010.04 1010.15 1010.36 1010.68 1011.12 1011.68 1012.32 1013.01 1013.71 1014.40 1015.03 1015.59 1016.07 1016.46 1016.78 1017.04 1017.26 1017.47 1017.68 1017.90 1018.16 1018.45 1018.77 1019.12 1019.49 1019.87 1020.25 1020.64 1021.01 1021.37 1021.72 1022.05 1022.35 1022.63 1022.89
1007.70 1008.16 1008.61 1008.99 1009.29 1009.50 1009.63 1009.71 1009.78 1009.88 1010.05 1010.32 1010.71 1011.22 1011.84 1012.55 1013.30 1014.07 1014.80 1015.48 1016.07 1016.57 1016.97 1017.29 1017.53 1017.73 1017.90 1018.07 1018.26 1018.48 1018.72 1019.01 1019.32 1019.65 1020.00 1020.35 1020.71 1021.06 1021.40 1021.73 1022.05 1022.35 1022.64 1022.91
1007.05 1007.60 1008.11 1008.57 1008.94 1009.22 1009.42 1009.57 1009.71 1009.88 1010.12 1010.46 1010.92 1011.50 1012.17 1012.93 1013.73 1014.53 1015.30 1015.99 1016.60 1017.09 1017.49 1017.78 1018.01 1018.17 1018.31 1018.44 1018.59 1018.76 1018.96 1019.20 1019.47 1019.77 1020.09 1020.41 1020.75 1021.08 1021.41 1021.73 1022.04 1022.35 1022.65 1022.94
1006.76 1007.34 1007.90 1008.40 1008.81 1009.14 1009.40 1009.62 1009.83 1010.07 1010.38 1010.79 1011.30 1011.93 1012.64 1013.43 1014.24 1015.05 1015.81 1016.50 1017.08 1017.56 1017.93 1018.20 1018.39 1018.52 1018.62 1018.71 1018.82 1018.95 1019.12 1019.32 1019.56 1019.83 1020.12 1020.42 1020.74 1021.06 1021.39 1021.71 1022.03 1022.35 1022.66 1022.96
1006.89 1007.47 1008.03 1008.53 1008.97 1009.32 1009.62 1009.89 1010.15 1010.45 1010.82 1011.27 1011.82 1012.47 1013.20 1013.98 1014.77 1015.55 1016.28 1016.92 1017.47 1017.90 1018.23 1018.46 1018.61 1018.71 1018.78 1018.84 1018.92 1019.02 1019.16 1019.34 1019.55 1019.80 1020.08 1020.37 1020.68 1021.00 1021.33 1021.66 1021.99 1022.32 1022.65 1022.97
1007.45 1007.99 1008.51 1008.99 1009.41 1009.76 1010.08 1010.37 1010.67 1011.01 1011.40 1011.88 1012.44 1013.08 1013.78 1014.52 1015.26 1015.97 1016.63 1017.21 1017.69 1018.06 1018.34 1018.52 1018.64 1018.72 1018.76 1018.81 1018.87 1018.96 1019.09 1019.25 1019.46 1019.70 1019.96 1020.25 1020.56 1020.88 1021.22 1021.56 1021.90 1022.25 1022.59 1022.92
1008.36 1008.84 1009.30 1009.72 1010.10 1010.43 1010.74 1011.03 1011.34 1011.68 1012.08 1012.55 1013.09 1013.69 1014.33 1014.99 1015.65 1016.28 1016.84 1017.33 1017.73 1018.04 1018.26 1018.41 1018.50 1018.56 1018.60 1018.65 1018.71 1018.80 1018.93 1019.09 1019.29 1019.52 1019.78 1020.06 1020.37 1020.69 1021.03 1021.38 1021.73 1022.09 1022.45 1022.80
1009.49 1009.89 1010.28 1010.63 1010.96 1011.25 1011.53 1011.81 1012.10 1012.43 1012.81 1013.24 1013.73 1014.26 1014.81 1015.38 1015.93 1016.45 1016.91 1017.31 1017.63 1017.87 1018.05 1018.17 1018.25 1018.31 1018.35 1018.41 1018.49 1018.59 1018.72 1018.88 1019.07 1019.30 1019.54 1019.82 1020.11 1020.43 1020.77 1021.11 1021.47 1021.84 1022.21 1022.57
1010.69 1011.01 1011.33 1011.62 1011.88 1012.13 1012.38 1012.62 1012.89 1013.19 1013.52 1013.90 1014.31 1014.76 1015.22 1015.68 1016.12 1016.52 1016.88 1017.19 1017.43 1017.63 1017.77 1017.87 1017.95 1018.02 1018.09 1018.17 1018.26 1018.37 1018.51 1018.67 1018.85 1019.06 1019.29 1019.54 1019.81 1020.11 1020.42 1020.76 1021.12 1021.49 1021.86 1022.23
1011.81 1012.07 1012.32 1012.56 1012.77 1012.98 1013.18 1013.40 1013.63 1013.89 1014.17 1014.49 1014.83 1015.19 1015.55 1015.90 1016.23 1016.54 1016.81 1017.04 1017.23 1017.38 1017.51 1017.61 1017.70 1017.79 1017.88 1017.98 1018.09 1018.21 1018.35 1018.50 1018.66 1018.83 1019.03 1019.24 1019.47 1019.74 1020.02 1020.34 1020.68 1021.04 1021.42 1021.79
Thickness
5774 5781 5783 5782 5782 5784 5785 5790 5787 5792 5796 5804 5808 5808 5804 5801 5798 5793 5788 5785 5781 5778 5773 5769 5765 5761 5758 5754 5752 5749 5745 5741 5738 5735 5733 5730 5728 5726 5725 5724 5723 5722 5721 5720
5759 5770 5773 5773 5781 5783 5783 5789 5791 5794 5796 5809 5810 5807 5800 5796 5793 5788 5785 5783 5779 5775 5770 5765 5760 5757 5754 5750 5747 5744 5740 5737 5734 5731 5728 5725 5723 5721 5720 5718 5717 5716 5714 5712
5751 5761 5760 5756 5774 5779 5782 5790 5791 5787 5796 5802 5798 5796 5795 5793 5790 5787 5784 5781 5775 5771 5766 5761 5758 5754 5749 5746 5743 5739 5735 5732 5728 5725 5722 5720 5719 5717 5714 5712 5710 5708 5706 5704
5750 5744 5730 5767 5788 5788 5784 5788 5795 5796 5799 5797 5796 5796 5795 5793 5789 5785 5782 5777 5772 5768 5762 5758 5755 5751 5747 5742 5738 5734 5729 5726 5723 5720 5717 5714 5712 5710 5707 5705 5703 5700 5697 5696
5743 5737 5745 5761 5774 5779 5775 5776 5790 5791 5791 5791 5792 5788 5786 5788 5787 5783 5779 5774 5770 5765 5760 5754 5750 5746 5742 5737 5733 5728 5723 5719 5717 5715 5711 5708 5705 5702 5700 5697 5694 5691 5689 5686
5735 5732 5732 5756 5774 5781 5775 5764 5784 5786 5784 5783 5782 5777 5779 5781 5781 5777 5773 5768 5764 5760 5754 5748 5744 5741 5735 5730 5725 5720 5716 5713 5710 5708 5705 5701 5698 5695 5692 5689 5686 5684 5681 5678
5728 5730 5747 5758 5768 5769 5750 5758 5775 5780 5780 5778 5778 5781 5781 5777 5772 5769 5764 5760 5757 5751 5745 5741 5738 5734 5728 5723 5717 5713 5710 5706 5703 5700 5697 5693 5690 5687 5685 5682 5679 5675 5672 5669
5725 5724 5733 5750 5758 5755 5754 5762 5768 5772 5774 5772 5771 5771 5770 5766 5761 5758 5754 5751 5747 5742 5736 5733 5730 5726 5720 5715 5710 5707 5703 5699 5695 5692 5690 5686 5682 5679 5677 5674 5671 5667 5664 5661
5727 5729 5733 5743 5746 5749 5753 5754 5759 5763 5766 5765 5762 5760 5757 5754 5751 5747 5744 5741 5738 5734 5728 5724 5721 5718 5712 5707 5703 5700 5695 5691 5686 5683 5680 5677 5674 5671 5670 5667 5665 5661 5658 5654
5714 5722 5728 5733 5738 5742 5746 5748 5753 5756 5758 5757 5754 5751 5748 5744 5740 5736 5733 5730 5728 5724 5719 5714 5711 5708 5704 5699 5695 5691 5686 5681 5678 5674 5671 5667 5665 5663 5660 5657 5655 5652 5648 5645
5704 5712 5719 5724 5728 5732 5736 5741 5745 5748 5750 5749 5747 5742 5739 5734 5730 5727 5724 5720 5718 5715 5709 5705 5702 5698 5695 5691 5688 5683 5678 5674 5670 5666 5662 5657 5652 5646 5646 5640 5638 5639 5637 5634
5699 5704 5709 5711 5717 5723 5725 5729 5734 5736 5737 5739 5738 5733 5729 5724 5720 5717 5713 5710 5707 5704 5700 5696 5693 5689 5685 5683 5680 5676 5671 5667 5664 5660 5655 5651 5644 5636 5627 5627 5623 5622 5620 5619
5691 5697 5700 5703 5708 5713 5716 5720 5724 5725 5726 5726 5725 5723 5718 5713 5709 5706 5702 5700 5697 5694 5691 5687 5684 5680 5677 5675 5671 5668 5665 5661 5658 5653 5649 5645 5640 5635 5627 5616 5612 5609 5607 5605
5681 5685 5688 5693 5697 5702 5705 5709 5712 5713 5714 5715 5713 5711 5707 5703 5699 5696 5692 5690 5687 5684 5681 5678 5675 5671 5668 5666 5663 5660 5657 5652 5649 5645 5642 5638 5633 5629 5625 5619 5613 5605 5597 5593
5673 5677 5681 5684 5688 5691 5694 5697 5698 5699 5700 5699 5699 5698 5695 5692 5688 5685 5682 5680 5677 5675 5671 5669 5666 5662 5660 5657 5654 5651 5648 5644 5641 5637 5633 5630 5626 5623 5619 5613 5609 5603 5597 5588
5664 5669 5672 5674 5677 5681 5684 5686 5687 5687 5688 5687 5686 5685 5684 5681 5678 5675 5672 5670 5667 5665 5661 5659 5656 5654 5652 5649 5645 5642 5638 5632 5631 5629 5626 5622 5618 5615 5611 5606 5603 5598 5593 5588
5654 5659 5663 5666 5669 5672 5675 5677 5677 5677 5676 5675 5674 5674 5672 5670 5667 5663 5661 5659 5656 5654 5652 5649 5647 5645 5643 5641 5638 5636 5631 5625 5621 5622 5619 5615 5611 5607 5603 5599 5595 5590 5584 5577
5652 5657 5660 5662 5663 5664 5665 5666 5666 5666 5665 5664 5664 5662 5660 5659 5656 5652 5650 5648 5645 5643 5641 5640 5638 5636 5634 5632 5629 5628 5624 5620 5617 5613 5609 5606 5602 5599 5595 5591 5587 5582 5575 5570
5646 5649 5652 5653 5655 5656 5656 5656 5656 5656 5655 5654 5652 5650 5649 5647 5645 5643 5641 5639 5636 5633 5630 5630 5626 5627 5624 5621 5620 5617 5616 5612 5608 5604 5600 5593 5593 5591 5587 5584 5580 5576 5571 5566
5638 5641 5643 5645 5646 5647 5647 5647 5647 5646 5645 5644 5642 5640 5638 5636 5634 5633 5631 5629 5628 5626 5622 5620 5619 5617 5615 5612 5610 5610 5608 5605 5601 5597 5593 5589 5586 5583 5580 5576 5572 5568 5563 5558
5629 5632 5634 5635 5635 5636 5637 5637 5637 5635 5635 5634 5633 5631 5628 5626 5624 5623 5622 5619 5616 5615 5614 5610 5612 5610 5607 5604 5601 5603 5600 5598 5595 5591 5587 5584 5580 5576 5573 5569 5565 5560 5556 5552
5622 5624 5625 5626 5627 5626 5627 5627 5627 5626 5625 5624 5623 5621 5619 5616 5614 5613 5612 5611 5607 5605 5606 5606 5604 5601 5599 5596 5598 5597 5594 5592 5589 5585 5581 5577 5573 5569 5566 5562 5558 5554 5550 5545
5613 5615 5616 5617 5617 5617 5617 5618 5617 5616 5615 5614 5613 5612 5611 5609 5609 5607 5603 5601 5600 5597 5599 5597 5593 5590 5589 5590 5591 5589 5587 5584 5581 5578 5574 5571 5567 5563 5559 5555 5552 5548 5543 5539
5604 5605 5606 5607 5608 5608 5608 5608 5607 5606 5606 5605 5605 5604 5603 5602 5601 5601 5597 5591 5590 5589 5590 5585 5582 5581 5580 5585 5583 5581 5579 5577 5575 5573 5569 5565 5561 5557 5553 5550 5546 5542 5537 5533
5595 5597 5597 5598 5599 5599 5599 5598 5598 5598 5598 5597 5597 5596 5597 5596 5595 5592 5589 5585 5581 5582 5581 5575 5574 5573 5576 5577 5575 5573 5572 5571 5570 5567 5563 5559 5555 5551 5547 5544 5540 5536 5532 5527
5588 5589 5590 5591 5592 5592 5592 5592 5592 5591 5591 5590 5588 5588 5588 5587 5586 5584 5581 5579 5577 5576 5575 5572 5570 5568 5571 5571 5569 5567 5565 5562 5560 5558 5556 5552 5549 5546 5542 5538 5532 5530 5526 5521
5582 5582 5583 5584 5585 5586 5586 5586 5586 5585 5585 5583 5582 5581 5581 5581 5579 5578 5576 5575 5573 5572 5571 5569 5567 5566 5566 5565 5563 5561 5559 5557 5554 5552 5549 5546 5542 5539 5535 5530 5527 5523 5519 5515